ISS (ZARYA) 1 25544U 98067A 26062.44686659 .00009386 00000+0 18180-3 0 9990 2 25544 51.6317 103.2200 0008211 152.5429 207.5995 15.48418100555366 POISK 1 36086U 09060A 26062.44686659 .00009386 00000+0 18180-3 0 9998 2 36086 51.6317 103.2200 0008211 152.5429 207.5995 15.48418100555055 CSS (TIANHE) 1 48274U 21035A 26061.80363536 .00017409 00000+0 21017-3 0 9999 2 48274 41.4651 250.0496 0006616 230.1207 129.9050 15.60315912276530 ISS (NAUKA) 1 49044U 21066A 26062.44686659 .00009386 00000+0 18180-3 0 9996 2 49044 51.6317 103.2200 0008211 152.5429 207.5995 15.48418100555064 FREGAT DEB 1 49271U 11037PF 26062.07347649 .00033502 00000+0 49339-1 0 9992 2 49271 51.6509 320.5956 0955180 44.2014 323.1255 12.39774562211870 CSS (WENTIAN) 1 53239U 22085A 26061.80363536 .00017409 00000+0 21017-3 0 9992 2 53239 41.4651 250.0496 0006616 230.1207 129.9050 15.60315912275615 CSS (MENGTIAN) 1 54216U 22143A 26061.80363536 .00017409 00000+0 21017-3 0 9993 2 54216 41.4651 250.0496 0006616 230.1207 129.9050 15.60315912275587 PROGRESS-MS 31 1 64751U 25146A 26062.44686659 .00009386 00000+0 18180-3 0 9991 2 64751 51.6317 103.2200 0008211 152.5429 207.5995 15.48418100555077 TIANZHOU-9 1 64786U 25149A 26061.80363536 .00017409 00000+0 21017-3 0 9995 2 64786 41.4651 250.0496 0006616 230.1207 129.9050 15.60315912275591 PROGRESS-MS 32 1 65586U 25204A 26062.44686659 .00009386 00000+0 18180-3 0 9993 2 65586 51.6317 103.2200 0008211 152.5429 207.5995 15.48418100555119 CYGNUS NG-23 1 65616U 25208A 26062.44686659 .00009386 00000+0 18180-3 0 9991 2 65616 51.6317 103.2200 0008211 152.5429 207.5995 15.48418100555124 ISS OBJECT XK 1 65731U 98067XK 26062.43355898 .00940340 47493-3 13197-2 0 9996 2 65731 51.6160 79.7208 0005912 55.9691 304.1882 16.05216946 25898 YOTSUBA-KULOVER 1 65941U 98067XN 26062.31379259 .00190411 00000+0 10922-2 0 9991 2 65941 51.6214 90.2937 0006068 29.9333 330.2013 15.77666940 22495 BOTAN 1 65942U 98067XP 26062.30429369 .04760636 12041-4 14503-2 0 9997 2 65942 51.6040 82.5602 0002926 46.9281 313.1984 16.26065138 22591 E-KAGAKU-1 1 65943U 98067XQ 26062.31702449 .00183480 00000+0 10654-2 0 9994 2 65943 51.6236 90.3309 0006308 37.0943 323.0492 15.77409964 22491 HRC MONOBLOCK CAMERA 1 66052U 98067XR 26062.42976719 .00054740 00000+0 63041-3 0 9996 2 66052 51.6272 97.1087 0003333 64.5025 295.6313 15.61422714 21410 HTV-X1 1 66174U 25241A 26062.44686659 .00009386 00000+0 18180-3 0 9998 2 66174 51.6317 103.2200 0008211 152.5429 207.5995 15.48418100555089 SZ-21 MODULE 1 66515U 25246C 26062.51439913 .00040507 00000+0 35642-3 0 9991 2 66515 41.4734 241.3606 0001453 287.8659 72.2024 15.67986981 17104 SHENZHOU-22 1 66645U 25272A 26061.80363536 .00017409 00000+0 21017-3 0 9998 2 66645 41.4651 250.0496 0006616 230.1207 129.9050 15.60315912267521 SOYUZ-MS 28 1 66664U 25275A 26062.44686659 .00009386 00000+0 18180-3 0 9999 2 66664 51.6317 103.2200 0008211 152.5429 207.5995 15.48418100555139 DUPLEX 1 66906U 98067XS 26062.35625276 .00032923 00000+0 47371-3 0 9992 2 66906 51.6288 101.1190 0002038 89.0398 271.0826 15.55742662 14141 ISS OBJECT XT 1 66907U 98067XT 26062.33753348 .00141674 00000+0 12825-2 0 9992 2 66907 51.6251 97.9840 0004568 38.4231 321.7090 15.67089753 14188 ISS OBJECT XU 1 66908U 98067XU 26062.46368431 .00149295 00000+0 13430-2 0 9992 2 66908 51.6245 97.3227 0004672 43.1438 316.9924 15.67218012 14200 SILVERSAT 1 66909U 98067XV 26062.34799072 .00179133 00000+0 14568-2 0 9996 2 66909 51.6247 97.2997 0005411 39.2869 320.8520 15.69574615 14192 ISS OBJECT XW 1 66910U 98067XW 26062.45772056 .00132206 00000+0 12184-2 0 9995 2 66910 51.6243 97.2785 0004870 51.9689 308.1746 15.66680726 14203 ISS OBJECT XX 1 66911U 98067XX 26062.41982124 .00225432 00000+0 16402-2 0 9992 2 66911 51.6218 96.2644 0006927 45.3691 314.7871 15.72076747 14205 ISS OBJECT XY 1 66912U 98067XY 26062.31581748 .00087307 00000+0 96247-3 0 9992 2 66912 51.6268 99.3453 0002831 54.0828 306.0429 15.62356640 14151 ISS OBJECT XZ 1 67683U 98067XZ 26062.41550678 .00040070 00000+0 67495-3 0 9996 2 67683 51.6308 103.0125 0009504 164.7935 195.3341 15.51247194 3817 GXIBA-1 1 67684U 98067YA 26062.26849864 .00074906 00000+0 11656-2 0 9990 2 67684 51.6298 103.5313 0010978 154.9471 205.2054 15.53164734 3792 CORAL 1 67685U 98067YB 26062.41239131 .00045363 00000+0 75392-3 0 9991 2 67685 51.6313 102.9911 0011498 160.9384 199.2038 15.51543478 3817 ISS OBJECT YC 1 67686U 98067YC 26062.40877039 .00051568 00000+0 84429-3 0 9991 2 67686 51.6308 102.9692 0007753 129.1230 231.0450 15.51946136 3815 LEOPARD 1 67687U 98067YD 26062.41381875 .00042870 00000+0 71815-3 0 9992 2 67687 51.6311 103.0024 0007736 132.4796 227.6848 15.51386771 3732 ISS OBJECT YE 1 67688U 98067YE 26062.41037585 .00049325 00000+0 81368-3 0 9995 2 67688 51.6313 102.9800 0007700 129.5648 230.6023 15.51755615 3735 CREW DRAGON 12 1 67796U 26031A 26062.44686659 .00009386 00000+0 18180-3 0 9997 2 67796 51.6317 103.2200 0008211 152.5429 207.5995 15.48418100555103